Location: Egypt Mills
(37.4050°N, 89.4637°W)
Time: 05:59:52
(UTC+00:00)

Daily predictions for brighter satellites

Satellite Brightness Start Highest point End
(mag) Time Altitude Azimuth Time Altitude Azimuth Time Altitude Azimuth
ERS-2 2.3 00:01:49 10° NNE 00:05:20 47° E 00:08:51 10° S
BREEZE-M DEB (TANK) 1.8 00:02:41 10° NW 00:05:37 63° NNE 00:07:22 15° ESE
Cosmos 1939 Rocket 2.9 00:01:37 10° SSE 00:05:44 89° ENE 00:09:51 10° NNW
Cosmos 2263 Rocket 4.2 00:01:51 10° WSW 00:06:31 26° WNW 00:11:13 10° N
Okean 1-7 Rocket 3.6 00:03:26 10° S 00:07:55 68° E 00:12:28 10° NNE
Cosmos 44 4.1 00:07:24 10° S 00:11:28 31° ESE 00:14:12 18° ENE
Nadezhda 4 Rocket 4.0 00:07:19 10° S 00:13:30 66° E 00:19:39 10° NNE
Cosmos 1726 Rocket 3.9 00:10:16 10° NNW 00:14:36 70° W 00:18:59 10° S
PSLV R/B 4.1 00:10:51 10° NNE 00:14:59 53° E 00:19:05 10° S
Cosmos 1626 Rocket 3.9 00:13:46 10° SSE 00:17:52 42° E 00:22:01 10° NNE
CZ-4 R/B 1.7 00:14:43 10° SE 00:18:38 44° ENE 00:22:31 10° N
Lacrosse 5 2.8 00:15:50 10° NNW 00:20:10 28° NE 00:22:02 22° ENE
ARGOS 3.9 00:16:16 10° SE 00:20:51 30° ENE 00:25:27 10° N
ATLAS 3B R/B 4.2 00:14:32 10° NW 00:21:04 41° WSW 00:27:48 10° S
NOSS 2-1 (E) 4.0 00:18:13 10° S 00:21:10 26° ESE 00:21:39 25° ESE
Aureole 2 Rocket 2.9 00:19:14 10° SSW 00:22:07 49° WNW 00:25:06 10° N
CZ-4B R/B 3.1 00:24:03 10° N 00:27:06 32° WNW 00:30:03 10° SW
Hubble Space Telescope 2.6 00:24:32 10° SW 00:27:45 22° S 00:30:03 14° SE
Cosmos 1689 Rocket 1.8 00:27:27 24° NNE 00:28:59 74° ESE 00:31:47 10° S
Meteor 2-13 Rocket 4.4 00:23:50 10° S 00:29:55 86° E 00:36:05 10° N
COSMO-SKYMED 1 3.7 00:29:09 10° N 00:33:17 45° WNW 00:37:24 10° SW
Cosmos 990 Rocket 4.2 00:28:32 10° S 00:33:32 49° ESE 00:36:47 21° NE
CZ-2C R/B 3.3 00:31:47 20° NE 00:34:53 34° E 00:39:56 10° SSE
IRS-1C Rocket 4.1 00:31:25 10° SSE 00:36:40 84° WSW 00:41:57 10° NNW
Cosmos 1844 3.7 00:33:40 10° SSW 00:39:17 82° WNW 00:44:57 10° NNE
NOAA 15 4.5 00:34:28 10° SSE 00:39:40 70° ENE 00:44:54 10° N
COSMOS 2455 4.1 00:34:17 10° SW 00:39:53 39° NW 00:45:31 10° NNE
Okean-O 2.5 00:36:27 10° SSE 00:40:51 74° ENE 00:45:16 10° N
DMSP B5D1-3 4.4 00:44:00 10° NNE 00:49:07 81° ESE 00:54:13 10° S
Cosmos 2026 Rocket 3.9 00:44:35 10° S 00:50:32 59° E 00:56:34 10° NNE
SAR-Lupe-4 4.5 00:48:43 11° N 00:52:05 48° WNW 00:55:31 10° SSW
CZ-2C R/B 4.0 00:51:02 10° S 00:56:03 51° W 01:01:25 10° NNW
H-2A R/B 1.9 00:51:49 10° SSE 00:56:46 88° W 01:01:51 10° NNW
Cosmos 1602 Rocket 3.4 00:53:42 10° S 00:58:01 89° WNW 01:00:31 25° N
Meteor 1-11 4.4 00:54:20 10° SSE 00:59:49 49° E 01:00:48 44° ENE
Cosmos 1844 Rocket 3.8 00:55:09 10° SW 01:00:31 43° WNW 01:05:55 10° N
Cosmos 923 Rocket 3.9 00:55:45 10° NNW 01:01:05 72° ENE 01:06:21 10° SSE
YAOGAN 1 2.9 00:56:53 10° S 01:01:09 67° WSW 01:05:28 10° NNW
Helios 1A Rocket 2.9 00:58:15 10° SSE 01:02:23 83° W 01:06:33 10° NNW
Cosmos 1898 Rocket 3.4 00:57:40 10° SSW 01:02:57 80° ESE 01:05:07 37° NNE
Cosmos 158 Rocket 3.9 00:58:54 10° NNW 01:04:17 85° ENE 01:09:40 10° SSE
Cosmos 1680 Rocket 3.4 01:03:09 10° N 01:08:22 62° ENE 01:08:27 62° ENE
Cosmos 2278 Rocket 3.2 01:04:56 10° S 01:08:10 29° SE 01:08:10 29° SE
NOSS 2-1 (C) 3.7 01:07:00 10° SW 01:09:57 50° W 01:09:57 50° W
Cosmos 2098 Rocket 4.2 01:03:42 10° S 01:10:29 71° E 01:17:55 10° N
X-37B 3.0 01:13:07 10° WNW 01:14:40 20° NW 01:14:40 20° NW
USA 267 3.1 01:13:39 44° NE 01:15:57 81° SE 01:22:30 10° SW
NOSS 2-1 (D) 4.1 01:12:58 10° SW 01:15:41 40° W 01:15:41 40° W
SJ 16-02 3.6 01:16:52 10° WSW 01:20:22 23° WNW 01:23:54 10° NNW
Meteor 2-8 Rocket 4.3 01:15:51 10° N 01:21:59 89° W 01:28:06 10° S
CSL-04 Rocket 3.7 01:17:11 10° S 01:22:33 79° WSW 01:28:01 10° NNW
Cosmos 1455 4.3 01:20:26 10° NNW 01:23:41 27° W 01:26:56 10° SSW
Cosmos 1340 3.9 01:22:10 10° SSW 01:25:06 39° WSW 01:25:06 39° WSW
Iridium 4 Rocket 3.9 01:22:55 10° N 01:28:29 66° W 01:33:33 10° S
ISS -0.7 01:29:07 10° NW 01:29:48 12° NW 01:29:48 12° NW
Cosmos 1937 Rocket 3.7 01:32:30 10° SSW 01:37:46 68° WNW 01:37:47 68° WNW
Lacrosse 5 3.5 01:58:28 10° NW 02:01:18 31° WNW 02:01:18 31° WNW
Hubble Space Telescope 3.9 02:05:11 10° WSW 02:05:22 11° SW 02:05:22 11° SW
CZ-2C R/B 4.4 02:13:16 25° NW 02:15:00 30° WNW 02:19:47 10° SW
Atlas Centaur 2 4.1 09:56:30 32° SSE 09:56:30 32° SSE 10:03:34 10° E
Cosmos 2333 Rocket 3.8 10:20:17 25° NNE 10:20:17 25° NNE 10:22:30 10° NNE
Cosmos 2219 Rocket 3.7 10:20:31 28° NNE 10:20:31 28° NNE 10:23:01 10° NNE
COSMOS 2428 3.2 10:38:26 49° NNE 10:38:26 49° NNE 10:42:32 10° NNE
IRIDIUM 114 4.4 10:40:46 10° S 10:45:57 72° E 10:51:10 10° N
deb Chang Zheng 4 4.5 10:48:04 10° NNE 10:52:11 46° E 10:56:14 10° S
CZ-4B R/B 3.7 10:48:59 10° SSE 10:50:21 22° SE 10:50:21 22° SE
Cosmos 540 Rocket 4.5 10:48:59 10° S 10:53:49 45° ESE 10:58:41 10° NNE
IRIDIUM 103 4.2 10:49:53 10° S 10:55:05 89° E 11:00:20 10° N
Haruka 3.8 10:54:44 45° SSW 10:55:41 50° S 11:07:21 10° ESE
BREEZE-M DEB (TANK) 3.2 10:58:46 42° E 10:58:46 42° E 11:02:45 10° ENE
CZ-2C R/B 2.6 10:59:52 32° SSE 10:59:57 32° SSE 11:03:34 10° E
Cosmos 1461 3.5 11:01:20 55° N 11:01:20 55° N 11:05:09 10° NNE
ADEOS 3.5 10:56:10 10° N 11:08:37 - SSW 11:00:59 67° NW
Cosmos 990 Rocket 4.2 10:59:51 33° N 11:02:08 68° ENE 11:07:13 10° SSE
Meteor 2-10 4.0 10:58:32 10° S 11:04:13 82° W 11:09:46 10° N
OAO 2 Rocket 3.3 11:04:20 63° SSW 11:04:42 66° S 11:09:34 10° E
IRIDIUM 106 4.2 11:08:15 10° SSW 11:13:24 61° W 11:18:34 10° N
Cosmos 1892 Rocket 3.4 11:12:42 52° NNW 11:13:44 85° W 11:18:08 10° S
Meteor 1-24 Rocket 4.1 11:16:46 40° WSW 11:16:46 40° WSW 11:21:14 10° SSW
Cosmos 921 Rocket 4.3 11:21:02 25° N 11:21:02 25° N 11:22:57 10° N
Cosmos 1763 Rocket 3.6 11:21:22 47° WNW 11:21:39 48° WNW 11:26:42 10° N
SAR-Lupe-4 4.4 11:22:01 10° SSE 11:25:28 49° ENE 11:28:45 11° N
COSMO-SKYMED 1 2.4 11:21:32 10° S 11:25:52 76° WSW 11:28:27 24° NNW
Cosmos 841 Rocket 3.4 11:22:44 10° SSW 11:27:52 89° WNW 11:33:02 10° NNE
CZ-4B R/B 2.4 11:25:30 10° N 11:29:06 72° WNW 11:32:47 10° SSW
SJ 16-02 2.9 11:31:06 20° SW 11:31:06 20° SW 11:32:53 10° SSW
Cosmos 1898 Rocket 3.3 11:29:26 20° NNW 11:33:01 73° WSW 11:38:08 10° S
Gbstr 26 Del rocket 4.4 11:26:52 11° SW 11:33:58 86° SE 11:42:09 10° NE
SAR-Lupe-1 4.3 11:32:39 10° SSE 11:36:12 68° ENE 11:39:45 10° N
Lacrosse 5 rocket 3.3 11:34:24 13° N 11:36:42 20° NE 11:39:30 10° E
Chandra Rocket (1) 3.5 11:35:58 17° SW 11:37:47 22° SSW 11:40:09 10° SE
Lacrosse 4 Rocket 2.8 11:34:08 10° S 11:38:02 41° ESE 11:42:04 10° NE
H-2A R/B 2.5 11:34:45 10° N 11:38:27 77° WNW 11:42:10 10° SSW
BREEZE M DEB (TANK) 1.5 11:41:00 49° S 11:41:21 61° SE 11:44:01 10° ENE
Cosmos 1570 Rocket 3.9 11:36:55 10° SSW 11:42:08 81° WNW 11:47:23 10° NNE
Cosmos 1544 Rocket 3.5 11:39:00 10° SSW 11:43:14 56° W 11:47:30 10° N
SL-16 R/B 3.6 11:39:03 10° S 11:44:18 42° ESE 11:49:36 10° NE
FALCON 9 DEB 3.9 11:44:30 32° NNW 11:44:30 32° NNW 11:47:29 10° NNE
Atlas Centaur 2 3.7 11:39:07 15° WSW 11:45:31 51° S 11:53:43 10° E
GPS 2-04 Rocket1 4.1 11:45:43 23° WSW 11:47:11 28° SSW 11:50:47 10° SE
NOSS 0 Rocket 4.1 11:43:08 10° SW 11:49:04 47° WNW 11:55:01 10° NNE
Meteor 1-21 Rocket 4.2 11:43:52 10° N 11:49:37 82° W 11:55:26 10° S
Cosmos 2278 Rocket 2.1 11:44:29 10° NNW 11:50:11 85° WSW 11:55:51 10° SSE
Cosmos 1400 Rocket 2.9 11:46:29 10° S 11:50:32 84° E 11:54:40 10° N
CENTAUR R/B 4.1 11:46:57 10° S 11:51:58 35° ESE 11:57:44 10° NE
